• In Russia
  • List of Countries
  • For 7 days
  • Water Temperature
  • Satellite Maps
  • Weather Map
  • Weather Widgets
  • user-avatar
    Login

    Hourly Weather Nakhchivan

    Today, 28 February, Tuesday

    Time Temperature Precipitation Wind Pressure Humidity
    00:00 -2°C° 0 mm 1 mps 687 mmHg 86%
    01:00 -2°C° 0 mm 1 mps 687 mmHg 86%
    02:00 -2°C° 0 mm 1 mps 687 mmHg 86%
    03:00 -2°C° 0 mm 1 mps 687 mmHg 85%
    04:00 -2°C° 0 mm 1 mps 687 mmHg 86%
    05:00 -3°C° 0 mm 1 mps 687 mmHg 86%
    06:00 -3°C° 0 mm 1 mps 687 mmHg 87%
    07:00 0°C° 0 mm 1 mps 688 mmHg 87%
    08:00 +3°C° 0 mm 1 mps 688 mmHg 88%
    09:00 +4°C° 0 mm 0 mps 689 mmHg 89%
    10:00 +6°C° 0 mm 1 mps 689 mmHg 89%
    11:00 +6°C° 0 mm 1 mps 689 mmHg 88%
    12:00 +7°C° 0 mm 1 mps 689 mmHg 88%
    13:00 +7°C° 0 mm 1 mps 689 mmHg 89%
    14:00 +6°C° 0 mm 0 mps 689 mmHg 90%
    15:00 +6°C° 0 mm 0 mps 689 mmHg 90%
    16:00 +4°C° 0 mm 0 mps 688 mmHg 91%
    17:00 +2°C° 0 mm 0 mps 688 mmHg 91%
    18:00 0°C° 0 mm 0 mps 688 mmHg 91%
    19:00 -1°C° 0 mm 0 mps 688 mmHg 91%
    20:00 -1°C° 0 mm 0 mps 689 mmHg 91%
    21:00 -1°C° 0 mm 0 mps 689 mmHg 90%
    22:00 -1°C° 0 mm 0 mps 689 mmHg 90%
    23:00 -1°C° 0 mm 0 mps 689 mmHg 89%

    Tomorrow, 1 March, Wednesday

    Time Temperature Precipitation Wind Pressure Humidity
    00:00 -1°C° 0 mm 0 mps 689 mmHg 88%
    01:00 -1°C° 0 mm 0 mps 689 mmHg 88%
    02:00 -2°C° 0 mm 0 mps 689 mmHg 87%
    03:00 -2°C° 0 mm 0 mps 689 mmHg 87%
    04:00 -2°C° 0 mm 0 mps 689 mmHg 86%
    05:00 -2°C° 0 mm 0 mps 689 mmHg 86%
    06:00 -1°C° 0 mm 1 mps 689 mmHg 85%
    07:00 +2°C° 0 mm 1 mps 690 mmHg 83%
    08:00 +4°C° 0 mm 1 mps 690 mmHg 81%
    09:00 +6°C° 0 mm 1 mps 691 mmHg 79%
    10:00 +7°C° 0 mm 1 mps 691 mmHg 80%
    11:00 +7°C° 0 mm 1 mps 691 mmHg 80%
    12:00 +8°C° 0 mm 1 mps 690 mmHg 81%
    13:00 +7°C° 0 mm 0 mps 690 mmHg 82%
    14:00 +7°C° 0 mm 0 mps 689 mmHg 84%
    15:00 +7°C° 0 mm 0 mps 689 mmHg 86%
    16:00 +5°C° 0 mm 0 mps 688 mmHg 86%
    17:00 +4°C° 0 mm 1 mps 688 mmHg 87%
    18:00 +2°C° 0 mm 1 mps 687 mmHg 87%
    19:00 +2°C° 0 mm 1 mps 687 mmHg 87%
    20:00 +2°C° 0 mm 1 mps 688 mmHg 86%
    21:00 +2°C° 0 mm 1 mps 688 mmHg 86%
    22:00 +2°C° 0 mm 1 mps 688 mmHg 84%
    23:00 +2°C° 0 mm 1 mps 687 mmHg 83%

    Day after tomorrow, 2 March, Thursday

    Time Temperature Precipitation Wind Pressure Humidity
    00:00 +2°C° 0 mm 1 mps 687 mmHg 81%
    01:00 +2°C° 0 mm 1 mps 687 mmHg 80%
    02:00 +2°C° 0 mm 1 mps 687 mmHg 78%
    03:00 +2°C° 0 mm 1 mps 686 mmHg 77%
    04:00 +2°C° 0 mm 1 mps 686 mmHg 76%
    05:00 +2°C° 0 mm 1 mps 686 mmHg 75%
    06:00 +2°C° 0 mm 1 mps 686 mmHg 74%
    07:00 +4°C° 0 mm 1 mps 687 mmHg 73%
    08:00 +5°C° 0 mm 1 mps 687 mmHg 72%
    09:00 +6°C° 0 mm 0 mps 687 mmHg 71%
    10:00 +7°C° 0 mm 0 mps 686 mmHg 72%
    11:00 +8°C° 0 mm 0 mps 686 mmHg 73%
    12:00 +8°C° 0 mm 0 mps 685 mmHg 74%
    13:00 +8°C° 0 mm 0 mps 685 mmHg 76%
    14:00 +8°C° 0 mm 0 mps 685 mmHg 78%
    15:00 +9°C° 0 mm 1 mps 684 mmHg 80%
    16:00 +7°C° 0 mm 0 mps 684 mmHg 81%
    17:00 +6°C° 0 mm 0 mps 684 mmHg 82%
    18:00 +4°C° 0 mm 0 mps 684 mmHg 83%
    19:00 +4°C° 0.1 mm 0 mps 684 mmHg 83%
    20:00 +4°C° 0.1 mm 0 mps 684 mmHg 82%
    21:00 +5°C° 0.1 mm 1 mps 684 mmHg 82%
    22:00 +4°C° 0.2 mm 0 mps 684 mmHg 83%
    23:00 +4°C° 0.2 mm 0 mps 684 mmHg 84%

    3 March, Friday

    Time Temperature Precipitation Wind Pressure Humidity
    00:00 +4°C° 0.2 mm 0 mps 684 mmHg 85%
    01:00 +3°C° 0 mm 0 mps 684 mmHg 85%
    02:00 +3°C° 0 mm 0 mps 684 mmHg 86%
    03:00 +3°C° 0 mm 0 mps 684 mmHg 86%
    04:00 +3°C° 0 mm 0 mps 684 mmHg 87%
    05:00 +2°C° 0 mm 0 mps 684 mmHg 87%
    06:00 +2°C° 0 mm 0 mps 684 mmHg 88%
    07:00 +3°C° 0 mm 0 mps 684 mmHg 85%
    08:00 +5°C° 0 mm 0 mps 685 mmHg 83%
    09:00 +6°C° 0 mm 0 mps 685 mmHg 80%
    10:00 +7°C° 0 mm 0 mps 685 mmHg 80%
    11:00 +8°C° 0 mm 0 mps 685 mmHg 79%
    12:00 +8°C° 0 mm 0 mps 684 mmHg 79%
    13:00 +9°C° 0 mm 0 mps 684 mmHg 78%
    14:00 +9°C° 0 mm 0 mps 684 mmHg 78%
    15:00 +9°C° 0 mm 0 mps 684 mmHg 78%
    16:00 +7°C° 0 mm 0 mps 684 mmHg 81%
    17:00 +6°C° 0 mm 0 mps 684 mmHg 84%
    18:00 +5°C° 0 mm 0 mps 683 mmHg 88%
    19:00 +4°C° 0 mm 0 mps 684 mmHg 88%
    20:00 +4°C° 0 mm 0 mps 684 mmHg 89%
    21:00 +3°C° 0 mm 0 mps 684 mmHg 90%
    22:00 +3°C° 0 mm 0 mps 684 mmHg 90%
    23:00 +3°C° 0 mm 0 mps 684 mmHg 90%

    4 March, Saturday

    Time Temperature Precipitation Wind Pressure Humidity
    00:00 +3°C° 0 mm 0 mps 684 mmHg 90%
    01:00 +3°C° 0 mm 0 mps 684 mmHg 90%
    02:00 +3°C° 0 mm 0 mps 684 mmHg 89%
    03:00 +3°C° 0 mm 0 mps 684 mmHg 89%
    04:00 +3°C° 0 mm 0 mps 684 mmHg 89%
    05:00 +3°C° 0 mm 0 mps 685 mmHg 89%
    06:00 +3°C° 0 mm 0 mps 685 mmHg 89%
    07:00 +4°C° 0 mm 0 mps 686 mmHg 86%
    08:00 +5°C° 0 mm 0 mps 686 mmHg 82%
    09:00 +7°C° 0 mm 0 mps 687 mmHg 79%
    10:00 +9°C° 0 mm 1 mps 687 mmHg 76%
    11:00 +10°C° 0 mm 1 mps 686 mmHg 73%
    12:00 +10°C° 0 mm 1 mps 686 mmHg 70%
    13:00 +11°C° 0 mm 1 mps 686 mmHg 70%
    14:00 +11°C° 0 mm 1 mps 686 mmHg 70%
    15:00 +11°C° 0 mm 1 mps 686 mmHg 70%
    16:00 +10°C° 0.1 mm 1 mps 686 mmHg 74%
    17:00 +8°C° 0.1 mm 1 mps 686 mmHg 79%
    18:00 +7°C° 0.1 mm 1 mps 686 mmHg 83%
    19:00 +6°C° 0.1 mm 1 mps 686 mmHg 84%
    20:00 +6°C° 0.1 mm 1 mps 687 mmHg 85%
    21:00 +6°C° 0.1 mm 1 mps 687 mmHg 86%
    22:00 +6°C° 0.1 mm 1 mps 687 mmHg 86%
    23:00 +5°C° 0.1 mm 1 mps 688 mmHg 87%

    5 March, Sunday

    Time Temperature Precipitation Wind Pressure Humidity
    00:00 +4°C° 0.1 mm 0 mps 688 mmHg 88%
    01:00 +5°C° 0.1 mm 1 mps 688 mmHg 88%
    02:00 +5°C° 0.1 mm 1 mps 688 mmHg 87%
    03:00 +4°C° 0.1 mm 1 mps 688 mmHg 87%
    04:00 +4°C° 0 mm 1 mps 688 mmHg 87%
    05:00 +4°C° 0 mm 1 mps 689 mmHg 87%
    06:00 +4°C° 0 mm 1 mps 689 mmHg 87%
    07:00 +6°C° 0 mm 1 mps 689 mmHg 83%
    08:00 +7°C° 0 mm 1 mps 690 mmHg 78%
    09:00 +8°C° 0 mm 1 mps 690 mmHg 73%
    10:00 +9°C° 0 mm 1 mps 690 mmHg 72%
    11:00 +9°C° 0 mm 1 mps 690 mmHg 70%
    12:00 +10°C° 0 mm 1 mps 690 mmHg 68%
    13:00 +10°C° 0.1 mm 1 mps 690 mmHg 68%
    14:00 +11°C° 0.1 mm 1 mps 690 mmHg 68%
    15:00 +11°C° 0.1 mm 1 mps 689 mmHg 67%
    16:00 +9°C° 0 mm 1 mps 689 mmHg 72%
    17:00 +7°C° 0 mm 0 mps 689 mmHg 77%
    18:00 +6°C° 0 mm 0 mps 689 mmHg 82%
    19:00 +5°C° 0 mm 0 mps 690 mmHg 83%
    20:00 +6°C° 0 mm 1 mps 690 mmHg 84%
    21:00 +5°C° 0 mm 1 mps 690 mmHg 85%
    22:00 +5°C° 0 mm 1 mps 690 mmHg 86%
    23:00 +5°C° 0 mm 1 mps 690 mmHg 86%
    Show more